Location: Newark
(42.1211°N, 12.2319°E)
Time: 14:40:38
(UTC+00:00)

Hubble Space Telescope - Visible Passes

Search period start: 14 December 2019 00:00
Search period end: 24 December 2019 00:00
Orbit: 536 x 540 km, 28.5° (Epoch: 14 December)

Date Brightness Start Highest point End Pass type
(mag) Time Alt. Az. Time Alt. Az. Time Alt. Az.
16 Dec 3.6 04:57:18 10° S 04:58:14 11° S 04:59:09 10° SSE visible
17 Dec 3.4 04:46:08 10° SSW 04:47:29 11° S 04:48:50 10° SSE visible
18 Dec 3.4 04:35:10 10° SSW 04:36:44 12° S 04:38:18 10° SSE visible
19 Dec 3.3 04:25:04 11° SSW 04:25:59 12° S 04:27:40 10° SSE visible
20 Dec 3.3 04:15:09 12° S 04:15:15 12° S 04:16:55 10° SSE visible
21 Dec 3.4 04:05:12 11° S 04:05:12 11° S 04:06:04 10° SSE visible
